Weather History for KAUS - March, 2014

Change the Weather History Date:

Sunday, March 9, 2014

  Actual Average Record
Temperature  
Mean Temperature 49 °F 57 °F  
Max Temperature 57 °F 70 °F 86 °F (2009)
Min Temperature 41 °F 45 °F 29 °F (2008)
Degree Days  
Heating Degree Days 16 9  
Month to date heating degree days 155 89  
Since 1 July heating degree days 1972 1704  
Cooling Degree Days 0 1  
Month to date cooling degree days 0 9  
Year to date cooling degree days 17 25  
Moisture  
Dew Point 40 °F    
Average Humidity 83    
Maximum Humidity 100    
Minimum Humidity 66    
Precipitation  
Precipitation 0.00 in 0.08 in 1.58 in (2015)
Month to date precipitation 1.14 0.76  
Year to date precipitation 2.23 5.27  
Snow  
Snow 0.00 in - - ()
Month to date snowfall 0.0  
Since 1 July snowfall T  
Snow Depth 0.00 in    
Sea Level Pressure  
Sea Level Pressure 30.28 in    
Wind  
Wind Speed 9 mph (NNE)    
Max Wind Speed 20 mph    
Max Gust Speed 24 mph    
Visibility 9 miles    
Events      
T = Trace of Precipitation, MM = Missing Value Source: NWS Daily Summary

Daily Weather History Graph

Daily Weather History Graph

Search for Another Location

Airport or City:

Trip Planner

Search our weather history database for the weather conditions in past years. The results will help you decide how hot, cold, wet, or windy it might be!

Date:

Astronomy

Mar. 09, 2014 Rise Set
Actual Time 7:47 AM CDT 7:35 PM CDT
Civil Twilight 7:23 AM CDT 7:59 PM CDT
Nautical Twilight 6:55 AM CDT 8:26 PM CDT
Astronomical Twilight 6:28 AM CDT 8:54 PM CDT
Moon 1:46 PM CDT (3/9) 3:56 AM CDT (3/9)
Length of Visible Light 12h 35m
Length of Day
11h 47m
First Quarter, 61% of the Moon is Illuminated
Mar 9
First Quarter
Mar 16
Full
Mar 23
Last Quarter
Mar 30
New
Apr 7
First Quarter

Hourly Weather History & Observations

Time (CDT) Temp. Windchill Dew Point Humidity Pressure Visibility Wind Dir Wind Speed Gust Speed Precip Events Conditions
12:53 AM 44.1 °F 37.1 °F 43.0 °F 96% 30.26 in 7.0 mi North 15.0 mph - 0.00 in   Overcast
1:35 AM 44.1 °F 37.4 °F 43.0 °F 96% 30.26 in 6.0 mi North 13.8 mph - N/A   Overcast
1:53 AM 44.1 °F 38.1 °F 44.1 °F 100% 30.26 in 7.0 mi North 11.5 mph - N/A   Overcast
3:53 AM 43.0 °F 35.4 °F 41.0 °F 93% 30.26 in 8.0 mi North 16.1 mph - N/A   Overcast
4:53 AM 43.0 °F 36.8 °F 36.0 °F 76% 30.28 in 9.0 mi North 11.5 mph - N/A   Overcast
5:53 AM 42.1 °F 35.7 °F 36.0 °F 79% 30.28 in 10.0 mi North 11.5 mph - N/A   Overcast
6:53 AM 42.1 °F 35.2 °F 35.1 °F 76% 30.30 in 10.0 mi North 12.7 mph - N/A   Overcast
7:53 AM 41.0 °F 32.8 °F 34.0 °F 76% 30.30 in 10.0 mi North 16.1 mph 21.9 mph N/A   Overcast
8:53 AM 41.0 °F 32.5 °F 34.0 °F 76% 30.33 in 10.0 mi North 17.3 mph - N/A   Overcast
9:53 AM 41.0 °F 33.5 °F 34.0 °F 76% 30.36 in 10.0 mi North 13.8 mph - N/A   Overcast
10:53 AM 44.1 °F 37.4 °F 36.0 °F 73% 30.35 in 10.0 mi North 13.8 mph - N/A   Overcast
11:53 AM 45.0 °F 38.2 °F 37.0 °F 74% 30.35 in 10.0 mi North 15.0 mph - N/A   Overcast
12:13 PM 46.0 °F 40.6 °F 37.9 °F 73% 30.34 in 10.0 mi NNW 11.5 mph - N/A   Overcast
12:53 PM 46.9 °F - 37.9 °F 71% 30.35 in 10.0 mi North 11.5 mph - N/A   Overcast
1:53 PM 48.0 °F - 37.9 °F 68% 30.32 in 10.0 mi NNE 6.9 mph - N/A   Overcast
2:42 PM 50.0 °F - 39.9 °F 68% 30.29 in 9.0 mi NE 11.5 mph - N/A   Overcast
2:53 PM 50.0 °F - 41.0 °F 71% 30.30 in 9.0 mi NNE 10.4 mph - N/A   Overcast
3:53 PM 52.0 °F - 42.1 °F 69% 30.25 in 9.0 mi NNE 10.4 mph - N/A   Overcast
4:53 PM 54.0 °F - 43.0 °F 66% 30.23 in 10.0 mi NE 8.1 mph - N/A   Overcast
5:53 PM 54.0 °F - 44.1 °F 69% 30.22 in 10.0 mi East 5.8 mph - N/A   Overcast
6:53 PM 54.0 °F - 45.0 °F 72% 30.22 in 10.0 mi East 4.6 mph - N/A   Overcast
7:53 PM 53.1 °F - 45.0 °F 74% 30.22 in 10.0 mi East 3.5 mph - N/A   Overcast
8:53 PM 52.0 °F - 45.0 °F 77% 30.23 in 10.0 mi Calm Calm - N/A   Mostly Cloudy
9:53 PM 50.0 °F - 45.0 °F 83% 30.25 in 9.0 mi Calm Calm - N/A   Scattered Clouds
10:53 PM 48.9 °F - 45.0 °F 86% 30.25 in 8.0 mi Calm Calm - N/A   Mostly Cloudy
11:53 PM 50.0 °F - 45.0 °F 83% 30.23 in 8.0 mi SSW 3.5 mph - N/A   Mostly Cloudy
12:53 AM 48.0 °F - 45.0 °F 89% 30.24 in 8.0 mi WSW 3.5 mph - N/A   Scattered Clouds